Location: Davayat
(45.9471°N, 3.1105°E)
Time: 17:15:20
(UTC+00:00)

USA 238 DEB - Pass Details

Date: 01 December 2020
Orbit: 996 x 1216 km, 63.4° (Epoch: 22 January)

Event Time Altitude Azimuth Distance (km) Brightness Sun altitude
Rises 18:50:36 0° 221° (SW) 3,720 7.1 -28.2°
Reaches altitude 10° 18:53:09 10° 223° (SW) 2,788 6.4 -28.6°
Maximum altitude 18:59:43 79° 310° (NW) 1,066 3.6 -29.8°
Enters shadow 19:00:38 67° 13° (NNE) 1,132 3.6 -29.9°
